Weather in Neve Zohar

Israel     31°09′10″N   35°21′55″E
temp.,
°C
wind,
m/s
gust,
m/s
humid.,
%
clouds,
%
prec.,
mm/h
press.,
hPa
HPBL,
m
28 september, tue
tue2800:00+23nw46653 0.0 1012329
03:00+22wnw47671 0.0 1012199
06:00+21wnw36750 0.0 1012120
09:00+23wnw33590 0.0 1013866
12:00+27nw23430 0.0 10121628
15:00+29nw33340 0.0 10101911
18:00+27nw75420 0.0 10111069
21:00+24nw67620 0.0 1012339
29 september, wed
wed2900:00+22wnw22670 0.0 101228
03:00+21wnw22760 0.0 101228
06:00+20wnw22810 0.0 101214
09:00+23nw11650 0.0 1013594
12:00+27ne22400 0.0 10121236
15:00+29nne24330 0.0 10091708
18:00+28nw65420 0.0 1010907
21:00+24wnw33570 0.0 1011172
30 september, thu
thu3000:00+23wnw22580 0.0 101119
03:00+22w11630 0.0 101114
06:00+20w22700 0.0 101112
09:00+23wsw01570 0.0 1012449
12:00+27e12340 0.0 10121141
15:00+30nne13270 0.0 10091613
18:00+28nw55370 0.0 1009812
21:00+25wnw34560 0.0 1011140
1 october, fri
fri100:00+23wnw22590 0.0 101128
03:00+22wnw11650 0.0 101115
06:00+20w11770 0.0 101211
09:00+23ssw11630 0.0 1012515
12:00+27e22410 0.0 10111097
15:00+30ene23330 0.0 10091438
18:00+29nnw23410 0.0 1009438
21:00+25wnw33590 0.0 1011129
2 october, sat
sat200:00+24w22630 0.0 101154
03:00+22w11700 0.0 101125
06:00+21w11750 0.0 101118
09:00+23wsw00630 0.0 1012469
12:00+28e21470 0.0 1011941
15:00+31e23350 0.0 10081308
18:00+29nnw33410 0.0 1009451
21:00+25wnw33570 0.0 1011135